Flag for Israel Weather past 2 weeks in Kfar Saba, Israel

Now
82 °F

Passing clouds.


Feels Like: 85 °F
Forecast: 72 / 84 °F
Wind: 12 mph from West

Location: Dov Airport

Current Time: Jul 7, 2015 at 3:16:04 PM

Latest Report: Jul 7, 2015 at 2:50 PM


Visibility: N/A

Pressure: 29.83 "Hg

Humidity: 58%

Dew point: 66 °F

Location of Kfar SabaLocation

Historic Weather in Kfar Saba — Graph

°F

Kfar Saba temperature yesterday

Maximum temperature yesterday: 82 °F (at 12:50 PM)
Minimum temperature yesterday: 73 °F (at 5:50 AM)
Average temperature yesterday: 80 °F

Past Weeks' High & Low Weather Summary

 TemperatureHumidityPressure
High84 °F (Jun 27, 5:50 PM)89% (Jul 6, 5:50 AM)29.95 "Hg (Jul 6, 5:50 AM)
Low70 °F (Jul 5, 5:50 AM)27% (Jun 27, 8:50 PM)29.56 "Hg (Jun 27, 10:50 PM)
Average79 °F67%29.83 "Hg
* Reported Jun 22 1:50 PM — Jul 7 1:50 PM, Kfar Saba, Weather by CustomWeather, © 2015

Note: Actual official high and low records may vary slightly from our data, if they occured in-between our weather recording intervals... More about our weather records

Advertising

Kfar Saba weather history for previous 24 hours

 ConditionsComfort  
Time TempWeatherWind HumidityBarometerVisibility
1:50 PM
Tue, Jul 7
82 °FPassing clouds.12 mph58%29.83 "HgN/A
12:50 PM81 °FPassing clouds.12 mph62%29.83 "HgN/A
11:50 AM81 °FScattered clouds.10 mph62%29.83 "HgN/A
10:50 AM82 °FScattered clouds.10 mph58%29.83 "HgN/A
9:50 AM81 °FScattered clouds.9 mph58%29.83 "HgN/A
8:50 AM79 °FScattered clouds.8 mph65%29.83 "HgN/A
7:50 AM79 °FScattered clouds.6 mph65%29.83 "HgN/A
6:50 AM75 °FScattered clouds.6 mph74%29.83 "HgN/A
5:50 AM75 °FPassing clouds.7 mph74%29.80 "HgN/A
4:50 AM75 °FPassing clouds.6 mph74%29.80 "HgN/A
4:00 AM75 °FPassing clouds.6 mph78%29.80 "HgN/A
10:50 PM
Mon, Jul 6
77 °FPassing clouds.5 mph79%29.83 "HgN/A
9:50 PM77 °FPassing clouds.3 mph79%29.83 "HgN/A
8:50 PM79 °FPassing clouds.7 mph79%29.83 "HgN/A
7:50 PM79 °FPartly sunny.9 mph79%29.83 "HgN/A
6:50 PM81 °FPassing clouds.10 mph74%29.80 "HgN/A
5:50 PM81 °FPassing clouds.10 mph74%29.80 "HgN/A
4:50 PM82 °FPassing clouds.10 mph70%29.80 "HgN/A
3:50 PM82 °FScattered clouds.12 mph70%29.83 "HgN/A
Weather by CustomWeather, © 2015

See weather overviewHow to use our weather pages